Voltar ao catálogo

KINEIS-4A

AtivoComunicaçõesSSO
NORAD 63303·PAYLOAD·🇫🇷 France

Lançado Mar 18, 2025 de Rocket Lab Launch Complex 1

Loading…

Próximas Passagens (próximas 24 horas)

TLE

AtualizadoSource: Space-Track

Época: Sep 14, 2026, 14:26 UTC

1 63303U 25056D   26257.60144396  .00001121  00000-0  18504-3 0  9994
2 63303  97.9208  19.2911 0002004  42.9133 317.2231 14.72284923 80282

Acompanhe KINEIS-4A em tempo real com AllMySat

Download on the App Store